Location: Hackbridge
(51.3833°N, 0.1500°W)
Time: 13:05:13
(UTC+00:00)

Cosmos 1833 Rocket - Pass Details

Date: 13 October 2019
Orbit: 833 x 839 km, 71.0° (Epoch: 18 November)

Event Time Altitude Azimuth Distance (km) Brightness Sun altitude
Rises 19:37:47 0° 329° (NNW) 3,393 6.6 -23.3°
Reaches altitude 10° 19:40:14 10° 329° (NNW) 2,456 5.7 -23.6°
Maximum altitude 19:45:52 86° 242° (WSW) 845 2.6 -24.5°
Enters shadow 19:47:13 54° 158° (SSE) 1,009 2.8 -24.7°
